Wind_Speed
44 45 46 45 44 45 45 45 46 46 46 47 47 48 48 46 45 45 45 46 47 48 47 47 49 48 46 43 41 40 38 38 39 38 38 38 38 36 35 34 32 32 32 33 33 33 33 33 34 34 35 37 39 41 42 42 40 38 37 37 37 38 39 40 40 41 42 43 43 43 45 46 47 48 48 48 48 47 47 47 47 48 48 48 47 48
46 47 46 46 47 46 45 45 46 46 45 46 46 47 46 46 46 45 44 45 46 47 47 48 49 48 45 41 40 41 38 36 37 37 37 37 38 38 37 37 35 34 33 33 33 33 34 34 35 35 35 36 37 40 43 44 43 42 41 39 38 38 38 39 40 41 42 43 44 44 44 46 47 48 49 49 50 49 48 48 47 48 49 49 49 49
46 45 44 44 45 44 44 43 44 44 45 45 45 45 44 43 44 43 42 43 45 46 46 47 48 47 44 40 40 42 42 40 40 40 38 38 38 39 40 40 40 39 37 36 36 35 35 35 36 37 37 37 37 39 41 44 45 45 44 42 41 39 39 39 40 41 42 43 44 44 44 45 46 47 48 49 49 50 50 50 49 49 50 51 51 51
43 41 41 41 41 41 41 40 41 42 43 42 42 42 41 39 42 42 40 40 42 43 45 47 49 48 44 40 40 43 44 45 46 44 43 44 43 43 44 44 44 44 44 43 42 42 41 40 40 40 40 40 40 40 40 43 45 46 45 44 43 42 41 41 41 42 43 44 45 45 45 45 45 46 46 47 48 49 50 51 51 51 51 52 52 53
37 37 38 38 38 39 38 37 38 39 40 39 39 39 39 38 40 41 41 41 41 42 44 47 49 49 45 41 41 44 46 48 49 47 47 48 48 48 48 48 48 48 49 49 48 47 46 44 43 42 42 42 42 41 41 42 44 46 47 47 46 44 44 43 43 44 45 46 47 47 47 47 46 47 47 47 48 49 50 51 52 51 51 51 52 53
32 33 35 36 38 39 38 37 36 38 40 39 37 38 39 39 39 40 42 43 44 44 45 46 49 49 46 42 42 45 48 50 50 49 49 50 50 51 51 51 52 52 52 51 49 47 43 41 40 38 38 39 39 40 41 42 43 43 45 46 47 47 46 45 45 45 46 47 48 49 50 49 49 49 49 49 49 50 51 52 53 53 53 52 52 52
32 33 34 36 38 39 40 38 38 40 41 39 38 38 40 41 41 42 43 45 47 48 48 48 49 50 50 46 45 47 50 51 51 51 52 52 52 52 52 53 53 53 52 51 50 47 44 41 37 34 32 33 35 37 39 41 40 39 42 45 47 49 49 49 48 47 47 48 48 50 51 51 51 51 51 51 51 51 51 52 53 54 55 54 54 53
35 34 35 36 38 39 39 39 41 43 42 41 40 40 41 42 43 44 45 46 48 49 50 49 47 50 53 51 49 51 53 53 52 53 54 54 54 53 52 51 52 52 51 50 51 48 45 41 37 35 33 33 34 36 39 40 39 40 44 48 49 49 50 51 51 51 50 50 50 50 51 52 53 53 54 54 54 53 53 53 53 54 55 56 56 55
38 38 38 39 39 39 38 40 42 43 43 43 43 43 43 44 44 45 45 47 48 50 52 50 47 50 54 53 54 56 56 56 55 55 56 55 54 53 52 50 49 50 49 48 49 49 45 41 38 36 35 34 35 37 41 42 42 45 47 48 50 50 51 52 52 53 53 53 52 52 52 52 53 54 55 55 55 55 54 54 54 55 56 56 57 57
42 43 43 42 40 39 40 41 42 43 44 45 45 46 46 46 45 45 46 47 48 51 51 49 49 53 55 55 57 58 58 58 57 57 57 55 53 52 51 50 47 48 49 47 46 45 43 41 39 38 38 38 38 39 42 44 46 48 46 46 49 50 52 54 54 53 53 53 54 54 54 54 54 55 56 56 57 56 56 55 55 56 56 57 57 58
45 47 47 45 43 42 42 42 42 44 45 45 45 46 46 46 46 47 48 49 51 52 50 49 52 55 57 57 58 59 59 60 58 57 55 53 52 50 50 50 48 47 48 48 46 43 42 41 39 38 40 41 41 41 43 47 49 49 48 48 50 50 50 53 55 56 55 54 54 54 54 55 55 56 56 56 57 58 58 57 57 57 57 58 58 58
45 46 46 46 45 44 43 43 43 44 44 44 44 45 46 47 48 49 50 51 53 53 51 52 54 56 59 59 59 60 60 59 56 54 53 52 51 50 49 50 49 48 48 49 48 46 45 45 43 42 43 44 46 47 49 52 53 54 55 54 52 53 52 53 56 58 59 59 57 56 55 55 56 56 57 56 57 57 58 58 59 59 59 59 59 59
46 45 44 44 43 43 44 45 44 44 44 44 45 46 47 49 50 52 52 52 54 54 54 55 57 59 61 60 60 60 57 56 55 53 52 52 51 50 49 50 50 50 50 50 51 50 49 50 49 48 47 49 52 55 56 56 58 59 59 58 56 57 58 58 58 59 61 63 63 61 59 58 58 58 58 59 58 58 58 59 60 61 61 62 61 61
49 48 45 44 45 45 46 46 45 45 46 47 48 48 49 50 51 53 53 53 55 56 56 56 57 59 60 59 58 57 54 54 54 52 52 51 50 50 50 51 51 51 52 52 53 53 54 54 54 53 52 54 56 58 58 58 59 60 59 59 59 59 61 61 60 60 61 64 66 67 66 64 62 62 62 62 61 61 61 60 61 62 63 64 64 65
52 52 49 48 48 48 47 47 47 49 49 49 50 51 52 51 51 52 53 54 55 55 55 55 56 57 57 55 54 53 52 52 52 51 50 49 49 50 50 51 52 52 52 52 53 54 55 56 57 56 56 57 58 59 59 59 60 60 60 59 59 60 60 60 60 60 61 63 65 67 69 69 68 66 66 66 66 65 64 64 64 65 66 67 67 68
54 53 51 50 50 48 48 49 51 51 52 52 52 53 53 51 49 50 52 52 52 53 54 53 53 53 52 51 51 51 51 50 50 49 49 49 49 50 51 51 52 53 53 53 53 54 55 56 57 57 58 59 59 60 60 59 59 58 58 57 57 57 58 59 60 60 61 63 65 67 69 70 71 71 71 70 69 69 68 67 67 68 69 70 72 72
53 53 52 51 51 51 51 52 53 53 53 53 53 51 51 49 48 49 51 50 50 53 53 50 49 50 50 50 51 51 50 49 48 48 48 49 50 51 51 51 52 52 53 53 53 54 55 55 56 56 57 59 60 60 59 59 58 57 56 56 56 56 57 59 60 61 62 63 66 69 71 72 74 75 76 75 73 72 72 72 72 72 73 75 77 77
52 53 52 51 51 52 51 51 52 51 50 50 49 48 48 48 48 48 50 50 50 53 53 49 48 49 50 51 51 50 47 46 46 47 48 49 49 49 49 50 51 52 53 54 54 55 55 55 55 56 57 58 58 58 57 57 57 57 56 56 56 57 60 62 63 64 65 65 67 69 71 74 75 76 77 78 77 75 73 72 72 75 78 80 80 80
52 53 52 51 51 51 49 48 49 49 48 48 47 47 47 48 49 49 50 51 50 53 53 51 49 49 49 50 48 46 44 43 44 46 47 47 47 47 48 48 49 50 51 52 52 52 53 54 55 56 55 54 52 51 51 51 51 52 54 55 56 57 59 62 64 66 68 70 71 72 72 74 77 78 78 78 77 75 73 71 71 74 78 81 81 80
52 52 52 51 50 50 48 46 46 47 47 47 48 48 48 48 48 49 50 51 52 53 54 52 51 50 48 45 43 43 42 43 45 46 46 46 46 46 46 47 48 49 50 51 51 52 53 54 53 51 49 48 48 49 50 51 52 54 56 58 59 60 61 63 64 65 67 70 73 75 76 76 79 81 82 81 80 79 77 77 77 79 81 83 83 81
51 52 52 49 48 49 49 47 46 46 47 48 48 48 48 48 49 50 51 51 52 53 53 52 52 49 45 42 42 43 43 44 45 45 44 45 46 46 47 49 51 53 54 55 55 55 56 56 56 55 55 57 59 60 61 61 62 63 64 65 65 66 67 68 69 70 70 71 73 74 76 78 80 82 84 85 84 83 82 81 82 84 87 89 89 87
50 51 51 49 48 48 48 47 48 48 48 49 49 48 48 49 50 53 54 51 50 53 53 52 53 49 42 40 43 44 45 46 47 46 45 46 47 48 50 51 52 54 56 58 59 59 60 62 63 64 65 67 68 69 70 70 71 71 72 72 73 74 74 75 76 77 77 78 79 79 80 82 83 83 84 86 87 87 87 87 86 88 90 91 91 90
50 51 52 51 49 48 47 49 51 51 50 49 50 49 48 50 50 52 54 52 50 52 52 51 53 50 45 44 46 47 47 48 49 49 49 50 51 53 54 54 55 57 59 61 63 64 66 67 68 69 69 70 71 72 73 74 75 76 76 77 77 78 78 78 78 78 79 79 80 81 82 84 85 87 87 88 90 91 92 92 91 91 93 93 92 90
50 51 52 52 51 50 49 51 52 52 50 49 50 49 49 51 51 51 53 53 53 54 52 52 55 53 49 46 47 47 47 48 49 49 50 51 52 55 56 57 59 61 63 64 66 66 67 68 69 71 72 74 75 76 76 77 78 79 80 80 81 81 81 81 80 80 81 81 81 81 82 83 84 86 87 89 91 93 94 95 94 94 93 93 93 92
51 52 53 53 53 53 52 51 52 52 50 49 50 50 50 50 51 52 53 54 56 56 53 54 55 52 48 47 46 47 49 49 49 49 49 49 52 54 57 58 60 62 63 65 66 67 68 70 72 74 76 77 79 80 81 82 83 83 84 85 85 86 86 86 86 87 87 87 87 86 86 86 86 87 87 88 90 91 93 95 96 96 95 94 94 92
52 53 54 54 55 55 53 52 52 53 52 52 51 51 51 51 51 53 55 55 57 57 55 56 55 52 49 50 51 52 52 52 52 53 54 55 57 59 61 63 65 66 68 69 71 72 74 75 77 79 80 81 82 83 85 86 87 87 87 88 88 89 89 89 90 90 90 90 90 90 90 90 90 90 91 91 92 92 93 94 96 98 99 99 98 97
54 54 54 55 56 56 53 53 54 55 56 55 53 52 52 52 52 54 57 59 59 59 59 58 57 56 54 52 53 54 53 54 55 57 59 61 62 64 66 68 69 71 72 73 74 76 77 78 79 80 81 81 82 83 85 85 86 86 86 87 87 87 88 88 89 89 90 90 91 91 92 92 92 92 92 92 93 93 94 94 95 97 99 102 103 104
55 56 55 56 57 56 55 55 56 57 58 56 55 54 53 53 54 56 59 60 58 60 62 59 56 58 56 52 52 53 53 56 58 60 63 64 65 67 68 69 70 71 72 73 74 75 75 76 77 78 79 80 81 82 83 83 84 85 86 86 87 88 89 89 90 91 92 93 94 95 95 96 96 97 97 97 97 97 97 97 97 97 98 100 103 105
57 58 56 57 58 57 56 57 57 58 58 58 57 56 55 54 55 58 60 59 58 61 63 59 56 58 57 53 53 54 55 58 61 63 64 64 66 67 68 68 69 70 72 73 74 75 75 76 77 78 79 80 81 82 83 84 85 86 87 88 90 91 92 93 93 94 95 96 97 97 98 99 99 100 100 101 101 102 102 102 102 102 102 103 104 105
58 58 57 58 59 57 56 57 58 58 59 58 58 57 57 56 58 59 60 59 59 61 60 57 57 58 56 55 55 56 58 60 62 64 64 65 66 67 68 70 71 72 73 74 74 75 76 77 78 79 80 82 83 84 85 87 88 89 91 92 93 95 96 96 97 97 98 98 98 99 99 99 99 99 100 100 101 102 103 104 105 106 107 107 108 108
58 58 58 59 59 58 56 57 59 59 59 60 59 58 58 58 59 59 58 58 59 60 59 58 60 60 57 57 59 60 61 62 64 65 66 67 68 69 69 71 72 74 75 75 75 76 77 78 80 81 83 85 86 88 89 90 92 93 94 95 96 97 98 98 98 98 98 99 99 99 99 99 98 98 98 98 99 99 100 101 102 104 105 107 108 109
58 59 59 59 60 58 56 58 60 59 60 62 60 58 56 56 58 57 57 57 58 60 60 61 62 62 59 59 62 63 63 64 65 67 68 69 69 69 70 71 73 75 76 76 77 78 79 81 82 84 86 87 88 90 91 92 93 94 94 95 96 96 96 97 97 96 96 96 96 96 96 96 96 96 95 96 96 96 97 97 98 98 99 101 102 104
58 59 58 58 60 59 56 59 60 59 62 63 59 55 54 54 57 57 57 56 57 59 62 64 64 64 63 64 65 65 66 66 67 68 70 71 71 71 71 73 75 77 77 78 79 81 82 83 84 85 86 86 87 88 88 89 89 90 90 91 91 91 91 91 91 90 90 90 90 90 90 90 90 90 90 90 91 92 92 93 93 94 95 95 96 97
58 58 58 58 60 60 57 58 60 62 64 62 56 53 54 56 58 58 58 57 57 60 64 67 67 67 68 68 67 67 68 68 69 70 72 73 74 74 75 77 78 79 80 80 81 82 83 83 83 83 83 82 81 81 81 82 82 82 83 83 83 83 83 83 83 83 83 82 83 83 84 84 84 84 85 86 86 87 88 88 89 90 91 92 92 93
58 58 58 59 60 60 58 58 62 65 63 59 55 54 57 59 59 59 60 59 59 62 66 68 69 70 70 70 69 69 69 70 71 73 75 77 77 77 78 79 80 80 81 81 82 82 82 81 80 79 77 76 74 73 73 74 74 74 75 75 75 75 76 76 76 76 76 77 77 78 79 79 80 81 81 82 83 84 85 86 86 87 88 89 89 90
57 58 59 59 60 61 60 60 64 65 61 58 56 56 58 60 60 61 63 62 61 64 67 68 70 71 72 72 72 71 71 72 73 75 77 79 79 79 79 79 79 79 79 79 78 77 76 75 74 72 71 69 68 68 67 67 68 68 69 69 69 70 70 70 71 71 72 73 74 75 77 78 78 79 80 81 82 82 83 84 85 86 87 87 87 87
56 57 58 59 59 60 61 62 63 65 63 59 56 56 59 60 61 64 67 65 62 65 69 70 71 72 73 73 73 74 74 75 76 77 79 79 78 78 77 76 75 74 73 71 70 69 68 67 66 65 64 64 64 64 63 63 64 64 64 65 66 66 67 68 69 70 71 73 74 75 76 78 79 79 80 80 81 82 82 83 84 84 85 85 85 84
56 56 56 58 59 59 61 62 63 65 64 59 55 57 61 62 64 67 69 68 65 66 70 71 72 74 75 75 75 76 77 78 78 78 78 77 76 75 74 72 71 69 67 65 63 62 61 60 59 59 59 59 59 60 60 60 61 61 62 63 64 66 68 69 70 72 73 73 75 76 77 78 78 79 79 80 80 81 81 81 81 81 82 82 82 81
56 56 56 58 59 59 60 63 64 65 64 60 58 61 63 65 67 69 71 71 68 68 70 72 73 75 76 76 77 78 79 79 79 77 76 74 72 70 69 67 65 63 61 59 58 57 56 55 55 55 55 56 57 57 58 59 60 61 62 64 66 67 69 70 72 73 73 74 75 75 76 77 77 78 79 79 79 80 80 80 80 80 80 80 80 80
57 57 57 59 60 59 61 64 65 65 64 63 63 64 65 67 69 71 73 73 70 69 71 72 74 76 77 78 79 79 79 79 77 74 72 70 67 65 63 61 58 56 55 54 53 53 53 53 53 53 54 55 56 57 58 59 60 62 64 65 67 69 70 71 72 72 73 73 74 74 75 76 77 77 78 79 80 80 80 80 79 79 78 78 78 77
58 59 59 60 60 61 62 65 66 66 65 65 66 66 67 69 71 72 72 71 69 71 73 74 76 77 78 79 79 78 77 75 72 70 67 64 61 60 58 55 53 52 52 52 51 51 51 52 53 53 55 56 57 58 59 60 61 63 65 66 68 69 70 70 71 71 72 72 72 73 74 76 77 77 78 79 79 78 78 77 76 76 75 75 74 72
59 60 61 61 62 63 64 66 68 69 67 66 66 67 69 71 72 71 71 70 72 74 75 75 76 77 77 77 75 74 71 69 66 63 60 58 56 54 53 52 51 51 51 50 50 51 51 52 53 55 56 57 58 59 60 61 62 63 65 67 68 69 69 69 70 70 70 71 72 74 75 75 76 77 77 77 76 75 74 73 73 73 72 70 68 64
60 61 62 63 63 64 65 68 71 71 68 67 68 70 72 73 72 71 71 72 73 74 74 74 74 73 73 72 70 67 65 62 60 58 56 54 53 52 51 50 50 50 49 49 50 51 52 53 54 56 57 58 59 60 61 62 63 64 66 67 68 68 68 68 69 70 71 72 73 73 74 74 74 74 74 75 74 72 70 69 68 66 64 61 57 53
62 62 62 63 64 66 68 70 72 71 69 69 71 71 71 71 71 71 71 71 71 71 71 70 69 68 67 66 64 62 59 57 55 54 53 52 51 50 50 49 48 49 49 49 50 51 52 54 55 56 58 58 60 61 62 63 64 66 67 68 68 68 68 69 69 70 71 71 71 71 71 71 71 72 73 72 69 66 63 62 60 57 55 52 48 44
64 62 62 64 67 69 69 70 71 71 70 70 70 69 67 67 68 69 69 68 68 67 66 66 65 63 62 62 60 58 56 53 51 50 48 48 48 48 47 47 48 48 49 50 51 52 54 55 56 57 58 60 61 63 64 65 66 67 68 69 69 69 69 69 69 69 69 69 69 68 68 69 69 69 68 65 62 59 57 55 53 51 48 44 40 36
64 63 65 67 68 68 69 70 69 69 69 67 66 65 64 64 64 65 64 63 62 61 60 60 60 58 58 57 56 54 53 51 49 48 46 46 46 46 46 46 48 49 50 51 53 54 55 56 56 58 59 61 63 64 65 67 68 69 69 69 69 69 69 68 67 66 66 66 66 66 66 66 64 62 60 57 55 54 53 51 48 44 40 36 33 32
64 63 66 68 69 69 70 69 67 66 64 62 61 60 59 59 59 57 56 56 55 55 55 54 54 54 54 53 53 52 51 49 48 47 47 46 45 45 45 46 48 50 51 53 54 55 56 57 58 59 60 62 64 65 66 68 69 70 70 69 69 68 67 65 64 64 64 64 64 63 62 60 58 56 54 51 50 49 48 45 42 38 34 33 33 34
64 64 67 69 69 68 67 65 62 61 61 60 59 57 54 51 51 50 50 50 50 50 49 49 49 50 51 51 51 50 49 48 46 45 45 45 45 45 46 48 49 51 52 54 55 56 57 58 59 60 61 63 64 66 67 68 69 70 69 68 67 66 63 62 62 62 62 61 60 57 55 53 53 51 48 45 45 44 42 40 37 35 34 35 36 37
62 65 66 66 65 65 63 61 59 57 57 55 53 51 49 48 48 48 48 47 47 46 45 46 47 48 50 50 50 49 48 47 45 44 44 44 45 46 48 49 50 51 53 55 56 57 59 60 60 61 62 64 65 67 68 68 69 69 68 66 64 62 60 59 59 60 59 56 53 50 49 49 48 46 43 41 40 40 39 38 37 35 35 37 40 41
61 62 62 61 63 63 60 55 52 51 51 50 47 47 47 47 47 47 45 45 45 45 45 46 46 48 48 48 48 47 47 46 45 44 44 45 46 48 49 50 51 53 55 56 57 58 59 60 61 62 64 65 66 67 67 67 68 67 65 62 60 59 58 58 58 57 53 49 46 45 45 44 42 41 40 39 38 36 36 37 38 37 37 39 41 43
58 60 59 57 58 56 52 48 46 47 48 47 45 45 46 46 45 45 45 45 46 46 47 47 47 46 46 46 46 46 46 46 46 45 45 46 47 48 49 51 53 54 56 57 58 58 59 61 62 63 65 66 67 67 66 66 65 64 61 60 59 59 58 57 57 53 47 42 41 41 40 38 37 36 37 37 36 35 34 35 37 39 40 40 41 42
Wind_Direction
278 280 281 283 283 280 280 281 283 284 284 285 286 285 286 286 287 287 287 288 289 289 291 292 291 291 293 296 296 295 296 297 297 297 297 297 297 297 297 297 295 294 293 294 295 295 295 293 293 291 289 287 286 284 282 281 280 278 275 273 271 270 270 270 270 270 270 268 265 264 263 263 263 263 262 262 261 259 258 257 257 257 256 256 256 256
279 280 280 281 279 279 279 280 281 282 282 283 283 284 284 285 285 286 287 288 289 289 290 291 290 291 293 297 299 298 298 298 297 296 297 299 299 300 300 300 299 297 296 296 296 296 296 296 296 295 293 290 288 286 284 282 281 280 278 275 272 269 268 268 268 268 268 268 267 265 264 264 264 264 264 264 264 264 263 261 260 258 257 257 257 257
278 278 278 278 278 279 279 280 280 280 280 281 282 282 284 285 285 286 288 289 290 290 290 290 291 292 296 301 303 302 304 303 300 301 302 302 301 301 301 302 302 301 300 298 297 295 293 293 292 292 292 292 290 287 284 282 279 278 278 276 274 271 268 267 266 266 266 266 265 265 264 263 263 263 264 265 265 265 265 265 264 262 260 258 257 257
278 278 278 279 279 279 279 279 279 280 280 281 282 283 284 286 285 286 288 289 290 291 291 292 292 294 298 303 305 303 303 302 301 303 306 305 305 304 303 304 304 304 304 302 300 298 296 294 292 290 290 290 290 288 285 282 279 276 275 274 273 271 269 267 265 265 265 265 264 263 263 262 262 262 262 262 262 263 263 264 264 263 262 261 259 258
279 280 280 281 280 280 279 278 278 279 280 280 282 283 284 285 286 288 289 289 288 289 290 291 291 293 296 301 303 302 300 298 299 302 304 304 304 304 305 305 306 306 306 306 305 304 303 301 298 295 293 291 289 287 284 280 277 276 275 274 274 272 270 268 265 264 263 263 263 263 263 263 262 261 260 260 260 260 260 261 262 263 263 262 261 260
279 279 281 282 281 281 280 278 278 279 279 280 282 284 285 286 287 288 288 288 288 288 289 289 290 291 293 296 299 299 297 295 297 299 300 301 302 304 306 306 307 307 307 307 307 307 306 304 301 295 292 290 286 283 281 276 273 273 274 275 275 275 273 271 268 265 263 262 262 262 262 262 262 261 260 260 260 260 259 260 260 261 262 262 261 260
277 276 278 279 280 280 281 281 281 280 280 281 283 284 284 286 286 286 287 287 287 288 289 290 291 292 292 296 297 295 294 295 296 297 298 300 302 304 305 305 306 305 305 304 303 304 304 302 298 290 283 281 278 275 273 270 268 271 276 276 276 275 275 273 271 269 267 265 263 262 261 261 261 261 260 260 260 259 259 259 259 260 260 261 262 261
277 275 275 275 275 276 278 280 280 280 281 281 281 281 282 283 284 285 286 286 287 288 289 291 295 295 293 296 298 295 295 296 297 299 299 301 302 303 304 304 303 301 300 300 298 298 299 298 292 284 276 271 270 269 267 266 265 270 277 277 276 275 275 275 274 272 270 268 266 264 262 261 260 259 259 259 259 259 259 259 258 258 258 259 260 261
279 278 276 275 274 274 275 275 276 278 279 280 281 282 283 283 284 284 285 285 287 287 288 293 297 295 293 295 296 296 297 299 300 301 302 302 303 303 303 303 302 299 298 298 297 296 295 294 288 281 274 267 265 267 265 261 262 269 273 273 273 275 276 276 276 274 273 271 269 267 265 263 261 259 258 258 258 258 258 259 258 258 258 258 258 259
282 281 279 277 276 275 274 273 274 277 278 280 282 284 285 285 285 286 285 286 287 286 289 294 296 294 292 292 294 296 297 298 300 301 302 302 301 300 300 299 298 298 297 297 296 294 293 292 287 279 273 267 264 266 263 259 262 269 270 267 268 270 273 275 276 276 275 273 271 269 267 266 264 261 259 258 258 257 257 257 257 258 258 258 258 258
280 281 279 278 277 276 275 275 276 277 278 281 282 283 283 284 285 285 285 286 286 287 291 293 292 291 290 290 292 294 296 297 298 299 299 298 297 296 296 295 295 295 294 294 294 291 287 287 285 277 270 266 264 265 262 260 263 268 268 267 265 264 266 269 272 274 275 274 272 270 269 268 267 266 263 261 259 259 258 258 258 258 257 257 257 257
279 279 278 278 278 279 279 278 278 278 279 280 280 280 281 282 283 284 284 285 287 288 289 289 289 289 290 290 292 293 294 296 297 296 294 293 293 293 293 293 292 291 291 291 290 288 283 281 281 276 268 262 262 265 266 265 266 267 270 271 266 260 261 264 267 269 272 274 273 271 269 268 267 267 266 264 263 261 261 260 260 260 260 259 258 258
280 279 278 279 279 279 279 279 279 280 280 280 280 281 282 283 283 283 285 286 287 288 287 287 288 288 289 290 290 291 291 292 291 290 290 290 289 289 289 289 289 288 287 286 286 285 282 280 279 277 270 263 262 266 270 269 269 269 270 271 268 263 262 264 265 265 266 269 271 271 269 267 266 266 266 265 264 263 262 262 262 262 262 262 261 260
281 280 279 278 277 278 279 280 281 281 281 281 283 283 283 284 284 285 287 288 287 286 286 286 286 286 287 288 288 289 288 287 287 286 286 286 286 286 285 284 284 284 283 283 282 282 280 279 279 278 275 270 267 269 271 271 270 270 269 269 268 266 265 265 264 263 262 263 265 267 268 266 265 263 263 263 262 262 262 262 262 262 263 263 263 262
280 279 279 277 277 278 280 281 281 281 282 283 284 283 283 284 285 285 286 285 284 284 284 285 285 285 287 287 287 287 287 286 286 286 285 284 284 284 283 283 282 281 280 279 279 278 277 276 276 276 275 274 273 273 272 272 271 270 270 269 268 266 265 265 263 262 261 260 260 262 265 266 265 263 262 261 260 261 261 261 262 263 263 263 263 263
278 279 279 278 279 279 280 280 281 281 282 282 282 282 283 283 282 282 281 281 281 280 281 284 284 284 286 286 287 286 286 286 286 285 284 283 283 283 283 282 281 280 279 278 276 275 273 272 272 273 273 273 274 273 273 272 271 270 269 269 268 267 265 264 263 262 261 259 258 259 261 263 264 265 264 261 260 259 260 261 263 264 264 265 265 264
279 280 280 280 281 281 281 280 280 281 280 280 281 281 282 281 279 278 278 278 277 276 280 283 282 282 284 284 285 285 284 285 284 282 282 282 283 283 282 281 279 279 278 277 276 274 273 272 271 272 273 273 273 273 273 272 271 270 268 267 265 264 263 262 262 262 261 260 259 259 260 261 262 263 264 264 263 261 260 262 263 265 266 267 266 265
279 281 282 282 282 281 281 281 281 280 279 279 279 279 278 278 278 277 277 277 276 276 280 283 281 282 283 284 286 284 281 281 279 278 280 280 280 279 278 277 277 277 276 275 274 273 273 273 274 274 274 274 275 275 275 274 274 273 271 269 267 265 263 262 261 261 261 260 259 259 260 261 262 262 263 263 264 264 263 264 265 267 269 271 269 266
280 281 282 283 282 281 281 281 281 280 280 279 278 277 276 276 277 277 276 277 278 278 280 282 281 281 282 284 286 282 278 276 276 278 279 278 276 275 275 275 275 276 276 275 274 273 272 274 276 278 278 277 277 276 275 274 273 272 271 270 268 266 265 263 262 261 260 260 260 260 260 260 260 262 263 263 263 263 263 264 265 267 270 272 270 266
280 280 281 283 282 281 281 281 279 279 278 277 277 277 277 276 277 276 276 278 279 279 280 281 281 283 286 286 283 278 275 276 278 279 277 276 274 273 272 272 272 272 271 271 271 272 273 274 275 275 272 269 267 265 264 264 264 264 265 266 266 266 266 266 265 264 263 261 261 262 263 262 261 262 264 265 264 264 264 263 264 265 267 268 267 264
279 278 280 281 281 281 282 281 278 275 274 274 274 274 275 276 276 276 276 278 279 278 279 278 278 282 286 284 279 276 276 278 278 276 274 273 273 270 268 268 268 269 268 267 269 270 271 271 269 267 265 263 263 263 263 263 264 265 266 267 267 268 268 269 269 269 268 267 265 263 263 263 263 263 264 265 267 267 267 265 264 264 265 265 264 262
280 279 279 280 281 282 282 280 276 274 273 273 272 272 273 274 274 275 276 278 277 275 276 277 277 279 281 280 278 277 278 278 276 273 271 271 270 268 266 266 267 267 266 267 267 268 269 269 269 269 268 267 267 267 268 268 269 270 271 271 271 271 271 271 272 271 271 270 269 267 266 266 267 267 267 267 268 269 269 267 266 264 264 263 262 262
280 278 278 279 279 280 279 276 275 275 275 274 273 273 273 272 272 273 275 277 275 272 274 274 272 274 277 278 277 276 276 276 274 272 271 270 269 267 266 266 266 265 265 265 266 266 268 270 271 271 271 271 271 271 272 273 274 275 275 276 276 276 276 276 276 276 275 274 272 271 270 269 269 269 269 268 268 268 268 268 268 266 266 265 265 265
278 276 276 276 277 278 278 276 275 274 275 274 273 273 273 273 274 273 273 274 273 272 274 271 269 275 281 279 277 277 277 276 274 273 271 270 268 267 266 267 266 266 266 266 266 266 268 269 271 271 271 272 272 273 274 275 276 277 277 278 278 278 278 278 278 278 278 277 276 275 274 273 271 271 270 269 269 269 269 269 270 269 269 269 269 269
276 274 274 275 276 277 279 278 276 274 273 271 271 272 272 272 274 274 274 274 273 274 274 271 273 281 283 279 279 279 277 275 273 272 271 269 268 267 268 268 268 268 268 267 267 268 268 270 271 272 273 272 273 273 274 275 276 277 277 277 278 278 278 278 278 278 278 278 277 276 276 275 274 273 272 271 271 271 271 271 272 272 272 272 271 272
273 271 272 274 274 276 278 277 274 272 270 269 270 270 271 272 273 274 275 274 273 274 274 274 278 282 279 279 280 279 276 275 274 273 272 270 269 268 268 269 269 270 270 269 269 270 271 272 273 274 274 274 274 274 275 276 276 277 277 277 277 278 278 278 278 278 278 278 278 277 277 276 275 274 274 273 273 273 272 272 272 273 274 274 274 273
272 271 271 272 272 274 276 274 271 269 268 269 270 270 271 273 274 274 274 273 274 274 274 277 281 280 277 279 281 279 277 276 275 273 272 271 270 270 270 271 271 271 272 272 272 273 273 274 275 275 276 275 276 276 276 277 278 278 278 278 279 279 279 279 279 279 279 279 278 278 278 277 277 276 276 275 275 274 273 272 272 271 271 272 273 273
270 270 271 270 270 270 271 269 268 268 268 269 269 270 271 272 274 274 274 274 275 275 275 279 281 278 278 279 277 275 274 273 271 270 270 271 272 272 272 273 274 274 275 275 275 275 276 276 277 277 277 277 278 278 278 278 279 279 280 280 280 280 280 280 280 280 281 281 281 280 280 280 279 279 278 277 277 276 275 274 273 272 271 270 270 270
267 268 269 268 267 267 267 267 267 267 268 269 270 271 272 273 274 274 274 275 276 276 278 281 279 276 278 279 276 274 272 271 271 271 272 273 274 275 276 276 276 276 276 276 277 277 277 277 278 278 278 278 279 279 279 279 279 280 280 280 280 280 280 280 280 280 280 280 280 280 280 280 279 279 279 279 278 277 277 276 275 274 273 272 271 270
267 268 268 266 266 267 267 268 268 268 268 269 270 272 274 275 274 274 275 277 277 276 277 279 276 275 278 278 276 274 274 274 274 275 275 276 276 277 277 278 278 278 278 278 278 278 279 279 279 279 279 279 279 279 279 279 279 278 278 278 278 278 278 278 278 278 278 278 277 277 277 277 277 277 277 277 277 277 276 276 275 275 274 273 272 271
268 268 267 267 267 268 269 269 269 269 270 269 270 272 275 277 276 276 277 277 277 277 278 278 276 277 279 278 277 276 276 277 277 278 278 278 278 279 279 279 279 279 279 280 280 280 281 281 280 280 280 280 280 280 279 279 279 279 279 279 278 278 278 278 278 278 278 278 278 277 277 277 276 276 276 276 275 275 275 275 274 274 274 273 272 272
267 267 268 268 268 269 269 270 270 270 270 269 271 276 278 278 277 277 276 275 276 278 279 278 279 281 280 278 277 278 279 279 280 281 281 281 281 280 280 280 280 280 280 281 281 282 282 281 281 281 281 281 281 281 281 281 281 281 281 281 281 281 280 280 280 280 280 280 280 279 279 279 278 278 278 277 277 276 276 276 275 275 274 274 273 273
267 268 269 270 270 270 270 270 271 271 269 271 276 281 280 277 276 275 275 276 277 279 279 279 280 281 280 279 280 280 281 282 282 282 282 282 282 282 282 282 282 282 282 283 283 283 283 283 283 282 282 282 282 283 283 283 283 283 283 283 283 283 282 282 282 282 282 282 282 282 282 282 281 281 281 280 280 279 279 278 278 277 277 276 275 275
268 269 270 270 271 272 272 272 271 270 270 276 281 281 278 275 275 275 276 277 278 278 279 280 280 281 281 281 282 283 283 284 284 284 284 284 285 285 285 285 285 285 285 285 285 285 284 284 283 283 284 284 284 285 285 285 285 285 285 285 285 285 285 285 286 286 286 286 286 286 286 286 285 285 284 284 283 283 282 282 281 280 279 279 278 277
270 270 271 272 272 273 273 272 271 272 276 280 280 278 277 277 277 278 277 277 277 278 279 280 282 283 284 284 285 285 286 286 286 287 287 287 287 287 287 287 287 287 287 287 286 285 285 285 285 285 286 286 286 286 286 285 285 285 286 286 286 287 287 288 288 288 288 288 289 288 288 288 288 287 287 286 286 285 285 284 283 283 282 281 281 280
272 272 273 274 274 275 275 274 274 276 279 279 279 280 280 279 279 279 278 278 279 280 281 282 283 284 285 286 287 288 288 288 288 288 288 288 288 288 287 287 287 287 287 286 286 286 286 286 287 287 287 287 286 285 285 285 285 285 285 286 286 287 287 288 288 288 289 289 289 289 289 289 288 288 287 287 286 286 285 285 284 284 284 283 283 283
273 273 274 275 275 276 277 276 277 278 278 279 281 282 281 281 282 281 281 281 282 282 283 283 284 285 285 286 287 288 288 288 288 288 288 287 287 287 287 287 287 287 286 286 286 286 286 286 287 286 286 286 285 284 284 284 285 285 286 287 287 288 288 289 289 289 289 289 289 289 289 289 288 288 288 287 287 286 286 285 285 285 285 284 284 284
272 273 274 274 274 275 276 277 278 278 279 282 283 282 282 283 284 283 282 283 283 284 284 284 285 285 286 286 287 288 288 288 288 288 288 288 288 288 288 288 287 287 287 287 287 287 287 286 286 286 285 285 285 285 286 286 287 287 288 288 288 289 289 290 290 290 291 291 291 290 290 290 289 289 288 288 287 287 287 286 286 286 286 285 285 285
272 273 272 273 273 275 276 277 278 279 282 285 285 284 284 285 284 283 283 284 285 285 284 285 286 286 287 288 288 288 288 288 288 288 288 288 289 289 288 288 288 288 288 288 288 288 287 287 286 286 286 286 286 287 288 288 288 288 289 289 289 290 290 291 291 292 292 292 291 291 291 290 290 290 289 289 288 288 288 287 287 287 287 287 286 286
272 272 272 272 274 276 277 278 279 281 285 287 287 286 286 285 284 283 284 286 287 286 285 286 287 287 287 288 287 287 287 287 287 287 287 288 289 288 288 288 288 289 288 288 287 287 286 286 286 287 287 287 288 288 288 289 289 289 290 290 291 291 292 292 293 293 293 292 292 292 291 291 291 291 290 290 289 289 289 289 289 289 289 288 287 287
272 272 273 274 276 277 278 280 281 283 286 287 287 286 285 284 283 284 285 287 287 286 286 287 287 286 287 286 287 287 288 288 288 289 288 288 288 288 288 288 288 288 287 287 286 286 286 287 287 287 288 288 288 289 289 289 290 291 292 292 293 293 293 293 293 293 293 293 293 293 293 292 292 292 291 291 291 291 292 292 292 291 290 289 289 289
272 273 274 275 277 279 280 282 283 284 286 287 286 285 285 284 284 285 287 287 287 287 287 286 286 286 286 286 286 287 288 288 289 289 289 288 288 287 288 288 287 286 286 285 286 286 286 287 287 288 288 289 289 289 290 291 292 293 294 294 294 294 295 295 294 294 294 294 295 294 294 294 294 293 293 294 294 294 294 294 293 292 291 291 292 292
272 273 275 277 279 280 281 282 283 285 286 286 285 285 285 286 286 287 287 287 286 286 286 286 286 286 285 285 286 286 287 288 288 288 288 287 287 287 286 286 285 284 283 284 285 285 286 287 288 289 289 290 291 291 292 293 294 295 296 296 296 296 296 296 296 296 296 296 296 296 295 295 295 295 296 296 296 296 296 295 294 294 294 294 294 293
273 274 277 279 280 280 281 282 283 284 285 286 286 286 286 286 287 286 286 285 285 286 286 285 285 285 285 285 285 286 287 287 287 287 287 286 286 286 285 284 283 283 283 284 285 286 287 288 289 290 291 291 292 293 295 295 296 297 298 298 298 298 298 298 298 298 297 297 296 296 296 296 297 297 297 298 298 298 297 296 296 296 296 296 295 295
274 276 277 278 279 280 281 282 282 284 285 287 287 287 287 287 286 286 285 285 285 286 286 286 285 285 286 286 287 288 288 288 288 287 286 286 286 285 284 283 283 283 284 285 286 287 288 289 290 291 292 293 294 295 296 297 298 299 300 300 300 300 300 299 299 298 297 297 297 297 297 298 298 298 299 300 300 299 298 297 297 297 297 296 296 296
276 277 278 278 279 280 281 281 282 285 287 288 287 287 286 286 286 286 286 286 287 287 287 287 288 288 288 289 289 290 290 290 290 290 289 288 287 285 285 285 285 286 286 287 288 289 290 291 292 293 294 295 296 297 298 299 300 300 301 301 301 301 300 300 299 298 297 297 297 298 298 299 299 300 301 301 301 300 299 299 298 297 296 295 295 296
276 278 278 279 279 280 281 283 285 286 286 285 284 285 286 286 286 286 285 285 285 286 286 287 288 289 289 290 290 291 292 292 292 292 291 290 289 288 287 286 287 287 288 289 289 290 291 292 294 295 296 296 297 298 299 300 301 301 301 302 302 301 300 299 298 297 297 297 298 298 299 300 300 301 301 301 301 300 300 299 298 296 295 294 293 295
276 277 277 279 281 281 282 284 284 282 281 282 283 285 285 284 284 284 284 284 284 284 285 286 287 288 288 289 290 291 292 293 292 292 292 290 290 289 288 288 288 289 289 290 290 291 293 294 295 296 296 297 298 299 300 300 301 301 302 302 301 300 299 298 298 297 297 298 298 299 299 300 301 301 302 302 301 301 300 298 296 295 295 294 294 296
276 277 279 281 281 281 281 282 282 282 282 282 282 282 281 280 280 280 281 283 284 285 285 285 285 286 287 289 291 292 293 293 293 292 291 290 290 289 289 289 290 289 290 290 291 292 294 294 295 296 297 297 298 299 300 300 301 301 301 301 299 298 298 297 297 297 298 298 298 299 300 301 302 302 303 303 302 301 300 298 296 295 296 297 297 298
277 279 281 282 280 280 281 283 285 286 284 281 280 279 279 279 279 280 281 283 285 286 286 285 285 285 287 289 290 291 292 292 292 292 291 290 289 289 290 290 289 289 290 291 292 293 294 295 296 296 297 298 298 299 300 300 301 301 300 299 298 298 297 296 296 297 298 297 297 298 300 301 303 304 305 304 303 302 302 301 300 299 297 298 299 299
280 282 282 280 281 283 286 288 289 287 284 281 280 278 277 277 279 282 284 285 285 285 286 287 288 288 289 289 289 290 291 292 292 292 292 291 290 290 289 289 289 290 290 291 292 293 294 295 296 296 297 298 298 299 300 300 300 300 299 299 298 298 297 296 295 296 296 295 296 298 300 302 304 307 308 307 306 305 303 302 302 302 301 300 300 300
Height
5807 5807 5806 5807 5807 5805 5805 5805 5804 5803 5802 5801 5800 5799 5799 5799 5800 5800 5799 5798 5797 5796 5797 5797 5796 5795 5796 5797 5797 5796 5797 5796 5794 5792 5792 5791 5791 5792 5791 5791 5791 5791 5790 5789 5788 5788 5787 5786 5785 5785 5784 5783 5782 5781 5780 5780 5780 5780 5780 5780 5780 5779 5779 5779 5778 5778 5778 5778 5779 5778 5778 5778 5778 5777 5777 5777 5777 5777 5777 5777 5778 5778 5778 5778 5778 5778
5803 5802 5802 5802 5800 5800 5800 5800 5799 5798 5798 5797 5796 5795 5795 5795 5794 5794 5794 5793 5792 5791 5792 5791 5791 5791 5791 5793 5792 5790 5791 5793 5791 5788 5788 5788 5786 5786 5785 5785 5785 5786 5786 5785 5784 5783 5782 5782 5781 5780 5779 5779 5778 5777 5776 5775 5774 5774 5774 5774 5775 5774 5774 5773 5773 5773 5773 5773 5773 5773 5773 5773 5773 5773 5772 5772 5772 5772 5772 5773 5773 5773 5772 5772 5772 5772
5797 5797 5797 5797 5795 5795 5795 5794 5794 5793 5792 5792 5791 5791 5791 5790 5789 5789 5789 5788 5787 5786 5786 5785 5785 5785 5786 5787 5786 5782 5783 5784 5783 5782 5783 5783 5782 5781 5780 5779 5779 5779 5780 5780 5779 5779 5779 5778 5777 5776 5775 5774 5773 5772 5771 5770 5770 5769 5768 5768 5769 5769 5769 5768 5768 5767 5767 5767 5767 5767 5767 5767 5767 5767 5767 5767 5767 5767 5767 5767 5767 5767 5767 5767 5767 5766
5792 5792 5792 5791 5791 5791 5791 5789 5789 5788 5788 5787 5787 5786 5786 5786 5784 5784 5785 5784 5783 5781 5780 5779 5779 5779 5781 5782 5780 5776 5777 5776 5775 5776 5776 5775 5775 5775 5774 5774 5773 5772 5772 5772 5772 5772 5772 5772 5771 5771 5770 5769 5768 5767 5766 5766 5765 5764 5763 5762 5762 5762 5763 5763 5762 5762 5762 5761 5761 5760 5760 5761 5761 5761 5761 5761 5760 5760 5760 5760 5761 5761 5761 5761 5761 5761
5788 5787 5787 5787 5786 5787 5787 5786 5785 5784 5784 5783 5783 5782 5782 5781 5780 5780 5780 5779 5779 5778 5777 5775 5774 5774 5776 5778 5775 5771 5772 5771 5769 5771 5770 5769 5769 5768 5768 5768 5767 5766 5764 5763 5763 5763 5763 5763 5763 5764 5763 5763 5762 5761 5761 5760 5759 5759 5758 5757 5756 5756 5756 5756 5756 5756 5756 5755 5755 5754 5754 5754 5754 5754 5754 5754 5754 5753 5753 5753 5753 5754 5754 5754 5754 5755
5784 5783 5783 5782 5781 5781 5781 5781 5781 5780 5780 5780 5780 5779 5778 5777 5777 5776 5775 5774 5773 5773 5773 5772 5770 5771 5772 5774 5772 5767 5767 5767 5765 5766 5766 5764 5764 5763 5762 5761 5760 5759 5757 5756 5756 5755 5755 5755 5755 5756 5756 5757 5757 5756 5755 5755 5754 5753 5753 5752 5751 5751 5750 5750 5750 5750 5750 5750 5749 5749 5748 5748 5747 5747 5747 5747 5747 5747 5747 5747 5747 5747 5747 5747 5747 5747
5780 5779 5779 5779 5777 5776 5776 5776 5775 5775 5775 5775 5776 5774 5773 5773 5772 5771 5770 5769 5768 5767 5767 5767 5765 5765 5766 5768 5767 5764 5763 5762 5760 5761 5761 5759 5759 5758 5757 5755 5754 5753 5752 5750 5750 5750 5750 5750 5750 5750 5750 5750 5750 5751 5750 5749 5748 5748 5748 5748 5747 5746 5745 5745 5744 5744 5744 5743 5743 5742 5742 5742 5741 5741 5740 5740 5740 5741 5741 5740 5741 5740 5740 5740 5740 5740
5774 5774 5775 5774 5773 5773 5772 5771 5769 5769 5769 5770 5770 5770 5769 5769 5767 5766 5765 5764 5763 5762 5762 5762 5762 5760 5761 5761 5758 5757 5757 5756 5755 5755 5755 5754 5752 5751 5750 5749 5747 5747 5747 5745 5744 5745 5745 5744 5744 5744 5744 5744 5744 5745 5745 5744 5743 5743 5744 5743 5742 5741 5740 5739 5738 5738 5737 5737 5737 5736 5736 5735 5735 5734 5734 5734 5733 5733 5734 5734 5734 5734 5734 5733 5733 5733
5769 5769 5769 5769 5769 5769 5769 5767 5765 5765 5765 5765 5764 5764 5764 5763 5762 5761 5761 5760 5759 5758 5757 5758 5758 5756 5757 5757 5752 5750 5750 5749 5749 5748 5748 5747 5745 5744 5742 5742 5741 5739 5740 5740 5738 5738 5740 5739 5739 5739 5739 5738 5738 5739 5739 5739 5738 5738 5738 5738 5737 5735 5734 5733 5732 5731 5731 5730 5730 5730 5729 5729 5728 5728 5727 5727 5726 5726 5726 5726 5726 5727 5727 5726 5726 5726
5764 5764 5763 5763 5764 5764 5764 5763 5762 5762 5760 5760 5760 5759 5758 5757 5756 5755 5755 5755 5753 5753 5755 5754 5752 5750 5751 5752 5748 5746 5745 5743 5744 5744 5742 5740 5739 5738 5736 5736 5736 5733 5732 5733 5732 5730 5732 5733 5733 5734 5734 5733 5733 5733 5732 5732 5731 5731 5731 5731 5731 5730 5728 5727 5725 5724 5724 5723 5723 5723 5723 5722 5722 5721 5721 5720 5719 5719 5719 5719 5719 5719 5719 5719 5719 5719
5758 5758 5757 5758 5758 5759 5759 5758 5758 5757 5756 5757 5755 5754 5753 5751 5751 5749 5748 5748 5746 5748 5751 5749 5746 5744 5744 5746 5744 5742 5741 5739 5739 5739 5737 5735 5733 5732 5731 5729 5730 5728 5726 5726 5726 5725 5725 5726 5727 5727 5728 5727 5726 5726 5726 5725 5724 5724 5723 5723 5723 5723 5722 5721 5719 5717 5716 5716 5716 5715 5715 5715 5715 5714 5714 5714 5713 5712 5712 5712 5712 5711 5711 5711 5711 5711
5753 5753 5752 5753 5753 5753 5753 5752 5752 5752 5751 5752 5750 5749 5747 5746 5745 5743 5742 5743 5741 5743 5746 5743 5740 5739 5739 5741 5739 5738 5737 5735 5734 5733 5731 5730 5728 5727 5726 5724 5723 5723 5721 5720 5720 5720 5719 5719 5720 5721 5721 5720 5719 5719 5718 5718 5717 5716 5715 5715 5715 5715 5714 5714 5712 5711 5709 5708 5708 5708 5708 5707 5707 5707 5706 5706 5706 5705 5705 5704 5704 5704 5704 5703 5703 5703
5746 5747 5747 5747 5748 5748 5747 5746 5746 5746 5745 5744 5743 5743 5741 5740 5738 5736 5736 5736 5735 5737 5738 5736 5735 5733 5733 5735 5733 5733 5733 5731 5729 5727 5725 5724 5723 5721 5720 5718 5717 5716 5716 5715 5714 5714 5713 5712 5712 5713 5713 5713 5712 5711 5710 5710 5709 5708 5707 5706 5706 5706 5706 5705 5705 5704 5703 5701 5700 5700 5700 5699 5699 5699 5698 5698 5697 5697 5697 5696 5696 5696 5695 5695 5695 5695
5740 5742 5743 5742 5742 5742 5741 5741 5740 5739 5739 5737 5737 5736 5734 5733 5731 5729 5730 5729 5727 5729 5730 5730 5730 5727 5728 5729 5727 5726 5727 5726 5723 5721 5720 5718 5717 5715 5714 5713 5712 5710 5710 5709 5707 5706 5706 5705 5704 5704 5704 5704 5703 5702 5702 5701 5700 5699 5698 5698 5697 5697 5696 5696 5695 5695 5694 5694 5692 5691 5691 5691 5690 5690 5690 5689 5688 5688 5687 5687 5687 5687 5686 5686 5686 5686
5733 5735 5738 5736 5736 5737 5736 5734 5733 5732 5732 5731 5730 5728 5727 5727 5725 5722 5723 5721 5719 5720 5722 5724 5723 5720 5721 5722 5721 5719 5718 5718 5716 5714 5713 5711 5710 5709 5707 5706 5705 5704 5703 5702 5701 5699 5698 5697 5696 5695 5694 5694 5694 5693 5692 5691 5691 5690 5689 5688 5688 5687 5687 5686 5686 5686 5685 5685 5684 5683 5682 5681 5681 5681 5681 5680 5679 5679 5678 5678 5677 5677 5677 5677 5676 5676
5725 5728 5732 5730 5728 5731 5730 5727 5726 5725 5725 5724 5723 5721 5720 5721 5719 5715 5714 5714 5713 5711 5714 5718 5716 5713 5714 5715 5714 5712 5710 5711 5709 5707 5705 5703 5702 5701 5700 5699 5697 5696 5695 5694 5693 5692 5690 5689 5688 5687 5686 5685 5684 5683 5682 5682 5681 5681 5680 5679 5679 5678 5678 5677 5677 5676 5676 5676 5675 5674 5673 5673 5672 5672 5672 5671 5670 5669 5669 5668 5668 5667 5667 5667 5666 5666
5718 5720 5724 5723 5721 5722 5722 5720 5718 5717 5717 5715 5715 5715 5713 5712 5711 5708 5706 5707 5706 5702 5706 5712 5710 5707 5707 5707 5708 5705 5703 5704 5702 5700 5698 5696 5695 5693 5692 5691 5689 5688 5687 5685 5684 5683 5682 5681 5680 5679 5678 5676 5675 5674 5673 5673 5672 5671 5671 5670 5670 5670 5669 5668 5668 5667 5667 5667 5666 5665 5665 5664 5663 5663 5662 5662 5661 5660 5659 5658 5658 5658 5657 5657 5656 5656
5710 5712 5715 5717 5713 5712 5713 5712 5709 5708 5708 5707 5707 5708 5706 5704 5703 5702 5699 5699 5699 5694 5696 5703 5703 5701 5700 5698 5700 5699 5697 5698 5696 5693 5692 5690 5688 5686 5685 5683 5682 5681 5679 5677 5676 5675 5673 5672 5671 5670 5669 5668 5667 5666 5665 5664 5663 5663 5662 5662 5661 5661 5660 5659 5659 5658 5657 5657 5656 5655 5655 5654 5653 5652 5652 5651 5650 5649 5649 5647 5647 5646 5646 5646 5646 5646
5701 5703 5706 5709 5707 5704 5705 5705 5701 5699 5699 5699 5699 5699 5699 5697 5696 5696 5692 5691 5691 5687 5686 5691 5693 5694 5693 5691 5691 5691 5689 5689 5688 5686 5685 5683 5681 5679 5677 5676 5675 5673 5671 5670 5669 5667 5666 5665 5664 5663 5661 5660 5660 5659 5658 5656 5655 5655 5653 5653 5652 5651 5651 5650 5649 5648 5647 5646 5645 5644 5644 5643 5642 5641 5640 5639 5639 5638 5637 5636 5636 5635 5634 5634 5634 5635
5694 5693 5696 5701 5701 5697 5698 5698 5696 5693 5691 5691 5690 5690 5690 5690 5689 5688 5685 5683 5682 5678 5677 5679 5680 5684 5687 5686 5684 5682 5681 5681 5680 5678 5677 5675 5673 5672 5670 5669 5667 5666 5664 5662 5661 5660 5659 5658 5658 5657 5655 5653 5652 5650 5649 5648 5646 5646 5644 5643 5643 5642 5641 5640 5639 5639 5638 5637 5635 5633 5632 5631 5630 5628 5627 5626 5626 5626 5625 5624 5623 5623 5622 5622 5623 5623
5687 5684 5686 5692 5694 5691 5690 5690 5689 5687 5684 5683 5683 5683 5683 5682 5681 5679 5678 5678 5675 5670 5669 5668 5667 5673 5679 5679 5676 5675 5674 5672 5670 5669 5668 5667 5666 5664 5662 5661 5659 5658 5656 5654 5653 5652 5651 5649 5648 5648 5646 5645 5643 5641 5640 5638 5637 5636 5635 5634 5633 5632 5631 5630 5629 5629 5628 5627 5626 5624 5622 5621 5619 5618 5616 5614 5613 5613 5612 5612 5611 5611 5610 5610 5610 5611
5679 5676 5676 5682 5685 5686 5684 5681 5678 5678 5677 5676 5675 5676 5676 5676 5674 5670 5668 5672 5670 5664 5662 5661 5657 5662 5670 5671 5668 5667 5666 5664 5661 5661 5660 5659 5658 5656 5654 5653 5651 5650 5648 5646 5645 5643 5642 5640 5638 5638 5637 5635 5634 5632 5630 5629 5628 5626 5625 5624 5623 5622 5621 5620 5619 5618 5617 5616 5615 5614 5613 5611 5610 5608 5607 5605 5603 5601 5600 5600 5600 5599 5599 5598 5597 5597
5672 5669 5668 5671 5675 5679 5678 5673 5668 5668 5670 5669 5668 5669 5669 5667 5667 5664 5660 5662 5663 5658 5658 5656 5650 5652 5661 5663 5661 5660 5659 5656 5653 5653 5652 5651 5650 5648 5646 5645 5643 5642 5640 5638 5637 5635 5633 5631 5630 5628 5627 5626 5624 5622 5620 5619 5618 5616 5615 5613 5612 5611 5610 5609 5607 5606 5605 5604 5603 5602 5601 5600 5598 5597 5596 5595 5593 5592 5590 5589 5589 5588 5588 5587 5585 5584
5665 5661 5660 5661 5664 5669 5671 5667 5661 5660 5662 5661 5660 5661 5661 5659 5659 5657 5653 5653 5651 5650 5652 5648 5642 5646 5653 5653 5652 5652 5651 5648 5646 5645 5645 5643 5641 5640 5638 5637 5635 5633 5631 5630 5628 5627 5625 5623 5621 5619 5618 5616 5614 5612 5610 5608 5607 5605 5604 5603 5601 5600 5598 5597 5596 5595 5594 5593 5592 5591 5589 5588 5587 5586 5584 5583 5581 5580 5578 5576 5576 5575 5574 5573 5572 5571
5657 5653 5652 5652 5654 5657 5662 5661 5655 5653 5654 5654 5653 5654 5653 5653 5652 5648 5646 5644 5638 5639 5643 5639 5635 5642 5645 5643 5644 5644 5641 5639 5638 5637 5637 5635 5633 5631 5630 5628 5626 5625 5623 5622 5620 5618 5616 5614 5612 5610 5608 5606 5604 5602 5600 5598 5596 5595 5593 5591 5590 5588 5586 5585 5583 5582 5581 5580 5579 5578 5577 5576 5576 5575 5574 5572 5571 5569 5567 5564 5562 5560 5559 5558 5558 5557
5650 5647 5645 5645 5644 5646 5652 5653 5648 5645 5645 5645 5646 5647 5646 5646 5645 5641 5639 5635 5629 5629 5632 5630 5630 5635 5637 5637 5636 5634 5631 5630 5630 5629 5629 5627 5625 5623 5621 5620 5619 5617 5615 5614 5611 5609 5607 5605 5603 5600 5598 5596 5594 5591 5589 5587 5586 5584 5582 5580 5578 5576 5574 5572 5570 5568 5567 5565 5564 5563 5562 5561 5561 5561 5560 5560 5559 5557 5556 5554 5551 5548 5546 5543 5543 5542
5640 5639 5640 5638 5636 5638 5642 5643 5639 5636 5635 5637 5639 5640 5640 5639 5638 5634 5629 5626 5624 5622 5621 5624 5626 5625 5628 5632 5629 5624 5623 5622 5621 5620 5618 5616 5615 5614 5612 5611 5610 5608 5606 5604 5602 5600 5598 5596 5593 5590 5587 5585 5583 5581 5579 5577 5575 5573 5570 5568 5566 5564 5562 5560 5558 5556 5553 5552 5551 5549 5548 5546 5546 5545 5545 5545 5544 5542 5541 5540 5539 5537 5534 5531 5529 5527
5631 5630 5633 5631 5628 5630 5633 5632 5630 5627 5626 5629 5630 5632 5634 5633 5631 5626 5620 5618 5618 5613 5611 5619 5622 5615 5617 5625 5622 5617 5615 5613 5611 5610 5608 5607 5606 5604 5604 5603 5601 5599 5597 5594 5592 5590 5588 5586 5583 5581 5578 5575 5573 5571 5569 5567 5564 5562 5559 5557 5554 5552 5550 5548 5546 5544 5542 5540 5538 5536 5534 5532 5531 5530 5529 5529 5528 5527 5525 5524 5524 5523 5522 5520 5517 5515
5623 5622 5626 5623 5619 5622 5624 5622 5620 5619 5618 5620 5621 5623 5626 5627 5624 5618 5613 5612 5612 5605 5602 5611 5613 5606 5608 5615 5613 5609 5606 5603 5601 5600 5600 5600 5597 5596 5595 5593 5591 5589 5586 5584 5582 5580 5578 5576 5574 5571 5568 5565 5563 5561 5559 5556 5554 5551 5549 5546 5543 5540 5538 5536 5535 5533 5531 5529 5526 5524 5521 5519 5517 5516 5514 5513 5512 5510 5509 5508 5508 5507 5506 5505 5503 5502
5615 5615 5617 5614 5610 5614 5616 5613 5611 5611 5611 5612 5613 5615 5617 5618 5616 5611 5607 5607 5605 5598 5598 5601 5599 5598 5604 5605 5601 5599 5597 5595 5592 5591 5592 5591 5589 5588 5586 5583 5581 5578 5575 5574 5572 5570 5568 5565 5563 5561 5557 5554 5552 5550 5547 5545 5542 5539 5537 5534 5531 5528 5526 5524 5522 5520 5518 5516 5514 5511 5509 5507 5505 5503 5501 5499 5497 5495 5493 5492 5491 5490 5490 5489 5487 5486
5607 5606 5606 5604 5602 5606 5609 5605 5600 5602 5602 5602 5605 5609 5610 5609 5606 5604 5603 5601 5596 5590 5591 5591 5586 5589 5598 5595 5590 5589 5589 5587 5584 5582 5581 5581 5580 5579 5576 5574 5570 5566 5563 5563 5562 5560 5557 5554 5552 5549 5545 5542 5539 5537 5534 5532 5529 5526 5523 5520 5517 5514 5512 5510 5508 5506 5504 5501 5499 5496 5494 5492 5491 5489 5487 5485 5482 5480 5478 5477 5475 5474 5473 5471 5470 5469
5600 5598 5597 5596 5593 5597 5603 5595 5590 5594 5592 5590 5597 5604 5605 5602 5597 5595 5595 5593 5589 5585 5582 5579 5576 5580 5585 5583 5580 5580 5579 5578 5576 5573 5571 5569 5568 5568 5566 5563 5559 5555 5554 5553 5551 5549 5546 5543 5540 5536 5533 5530 5527 5523 5520 5518 5515 5511 5508 5505 5503 5500 5497 5495 5493 5491 5488 5485 5483 5480 5478 5476 5474 5473 5471 5468 5466 5464 5462 5461 5459 5458 5456 5455 5453 5452
5592 5590 5590 5588 5583 5587 5594 5587 5582 5584 5580 5581 5593 5599 5597 5593 5587 5585 5586 5586 5584 5579 5572 5569 5569 5570 5571 5570 5571 5571 5570 5569 5567 5563 5560 5557 5556 5556 5556 5552 5547 5544 5544 5543 5540 5537 5534 5530 5527 5523 5520 5517 5514 5511 5507 5504 5502 5498 5495 5492 5489 5486 5484 5481 5479 5476 5474 5472 5468 5466 5463 5461 5459 5458 5456 5453 5450 5448 5446 5444 5443 5441 5439 5438 5437 5436
5584 5583 5582 5580 5575 5577 5583 5580 5574 5570 5570 5579 5590 5590 5585 5581 5578 5576 5578 5580 5578 5572 5564 5560 5559 5559 5559 5559 5561 5561 5560 5559 5556 5552 5548 5544 5543 5544 5543 5539 5535 5533 5532 5530 5527 5524 5520 5517 5514 5510 5508 5505 5503 5500 5496 5493 5490 5486 5483 5480 5477 5474 5471 5469 5467 5464 5462 5460 5456 5453 5450 5448 5446 5444 5441 5439 5436 5433 5432 5429 5427 5425 5422 5420 5420 5420
5577 5575 5573 5571 5568 5567 5572 5571 5562 5559 5566 5576 5581 5579 5574 5571 5570 5569 5568 5571 5570 5564 5557 5552 5549 5548 5548 5548 5549 5550 5549 5548 5545 5541 5536 5532 5531 5531 5529 5526 5523 5521 5519 5516 5514 5510 5507 5504 5501 5499 5497 5495 5492 5489 5486 5482 5479 5476 5472 5470 5467 5464 5462 5459 5457 5455 5452 5449 5446 5442 5439 5436 5434 5432 5428 5426 5423 5420 5418 5415 5412 5410 5407 5405 5404 5404
5568 5567 5564 5563 5560 5558 5561 5560 5553 5552 5561 5568 5569 5570 5566 5562 5561 5558 5555 5560 5562 5555 5549 5545 5541 5539 5537 5536 5538 5538 5537 5536 5534 5530 5525 5520 5519 5519 5517 5514 5512 5510 5507 5504 5501 5498 5495 5493 5491 5488 5486 5484 5482 5479 5476 5473 5470 5467 5464 5461 5458 5456 5453 5450 5448 5446 5443 5440 5437 5433 5429 5425 5423 5420 5417 5414 5411 5408 5405 5402 5399 5397 5393 5391 5390 5389
5560 5558 5557 5554 5552 5551 5550 5549 5547 5545 5550 5559 5563 5562 5555 5552 5552 5546 5541 5547 5552 5547 5539 5535 5533 5531 5529 5527 5528 5528 5526 5525 5523 5519 5514 5509 5508 5507 5506 5504 5501 5499 5496 5493 5491 5489 5486 5484 5482 5479 5477 5475 5472 5469 5467 5464 5462 5459 5457 5454 5450 5448 5445 5442 5439 5437 5434 5431 5427 5423 5419 5415 5412 5409 5406 5403 5399 5396 5394 5390 5387 5385 5381 5377 5377 5376
5553 5551 5550 5546 5545 5545 5541 5539 5540 5536 5539 5550 5556 5551 5545 5544 5542 5534 5528 5533 5541 5539 5531 5526 5523 5521 5519 5518 5518 5517 5515 5513 5513 5509 5502 5497 5497 5496 5494 5492 5490 5488 5486 5484 5481 5480 5477 5475 5473 5470 5468 5465 5463 5460 5458 5456 5453 5451 5448 5445 5442 5439 5436 5433 5430 5427 5424 5421 5417 5412 5408 5404 5400 5397 5394 5391 5387 5384 5382 5379 5376 5373 5369 5365 5363 5363
5544 5544 5543 5537 5537 5540 5535 5531 5530 5528 5531 5540 5543 5539 5537 5534 5530 5523 5518 5521 5530 5529 5521 5517 5515 5510 5508 5508 5507 5506 5504 5502 5503 5501 5492 5486 5486 5486 5483 5482 5480 5477 5476 5474 5472 5470 5468 5466 5464 5461 5459 5457 5454 5452 5450 5447 5445 5442 5439 5436 5433 5430 5427 5424 5420 5417 5414 5410 5406 5401 5397 5393 5389 5385 5382 5379 5376 5372 5369 5366 5364 5361 5358 5354 5351 5349
5536 5535 5534 5530 5530 5533 5529 5523 5521 5521 5525 5529 5528 5527 5526 5522 5517 5513 5508 5510 5517 5517 5512 5509 5506 5501 5499 5497 5495 5493 5493 5490 5490 5491 5485 5479 5477 5475 5473 5473 5471 5469 5467 5466 5464 5462 5460 5457 5455 5453 5451 5448 5446 5444 5441 5439 5437 5434 5431 5428 5424 5421 5418 5414 5411 5407 5403 5399 5395 5391 5387 5382 5378 5375 5370 5367 5363 5360 5357 5354 5351 5348 5345 5342 5339 5336
5528 5526 5525 5524 5524 5524 5520 5515 5512 5515 5519 5519 5516 5515 5515 5510 5506 5503 5502 5502 5503 5503 5502 5501 5497 5492 5489 5487 5484 5483 5482 5479 5477 5478 5476 5472 5469 5467 5465 5464 5463 5462 5460 5458 5456 5454 5451 5449 5447 5445 5443 5440 5438 5436 5433 5431 5428 5426 5422 5419 5415 5412 5409 5405 5401 5397 5393 5389 5384 5380 5376 5371 5367 5363 5359 5355 5351 5349 5346 5342 5338 5335 5332 5329 5327 5325
5521 5518 5517 5517 5517 5515 5512 5508 5503 5505 5511 5511 5506 5503 5502 5498 5496 5494 5494 5493 5491 5491 5491 5489 5486 5483 5479 5476 5475 5473 5472 5470 5468 5467 5466 5463 5461 5460 5459 5457 5456 5454 5452 5450 5448 5446 5443 5441 5439 5437 5435 5432 5430 5427 5425 5422 5420 5417 5413 5410 5406 5403 5399 5396 5392 5387 5383 5378 5374 5369 5365 5361 5356 5352 5348 5344 5340 5337 5335 5331 5326 5323 5320 5317 5316 5315
5513 5511 5510 5511 5510 5506 5504 5500 5495 5496 5501 5500 5495 5493 5490 5487 5486 5486 5483 5481 5479 5479 5479 5476 5475 5472 5468 5466 5466 5465 5465 5464 5460 5459 5458 5455 5453 5452 5451 5450 5448 5446 5445 5443 5441 5438 5436 5433 5431 5429 5426 5424 5421 5418 5416 5413 5411 5408 5404 5400 5397 5393 5390 5386 5382 5377 5373 5368 5363 5359 5354 5350 5346 5341 5337 5333 5329 5326 5324 5320 5316 5313 5310 5308 5306 5305
5504 5505 5505 5504 5501 5497 5494 5493 5488 5487 5491 5489 5483 5483 5481 5477 5476 5475 5472 5470 5468 5467 5467 5466 5464 5462 5458 5457 5457 5457 5457 5456 5453 5452 5451 5448 5446 5445 5443 5442 5441 5438 5437 5435 5433 5431 5429 5426 5424 5421 5418 5415 5412 5409 5407 5404 5402 5399 5394 5391 5387 5384 5380 5376 5371 5367 5363 5358 5353 5349 5345 5341 5337 5332 5327 5323 5319 5316 5313 5310 5307 5305 5302 5299 5298 5297
5495 5499 5499 5496 5493 5488 5485 5485 5479 5477 5481 5480 5474 5472 5470 5467 5465 5463 5460 5459 5458 5457 5456 5454 5453 5452 5450 5448 5448 5448 5448 5448 5446 5445 5443 5442 5440 5438 5436 5435 5433 5431 5429 5427 5425 5423 5421 5419 5417 5414 5410 5407 5403 5401 5398 5395 5392 5389 5385 5381 5378 5374 5370 5366 5362 5358 5353 5348 5344 5340 5336 5333 5328 5323 5319 5314 5310 5307 5305 5302 5300 5297 5295 5293 5291 5290
5488 5492 5489 5486 5486 5480 5474 5475 5473 5471 5473 5471 5465 5461 5459 5457 5456 5453 5450 5449 5449 5448 5446 5443 5442 5442 5441 5439 5439 5439 5439 5439 5438 5436 5435 5434 5433 5431 5429 5427 5425 5423 5422 5419 5417 5415 5413 5411 5409 5406 5402 5399 5395 5392 5389 5385 5381 5378 5375 5372 5368 5364 5360 5356 5352 5348 5344 5340 5336 5332 5328 5324 5320 5316 5311 5307 5303 5300 5297 5294 5292 5291 5289 5287 5286 5285
5482 5484 5479 5475 5476 5471 5465 5466 5468 5465 5463 5461 5456 5452 5450 5447 5446 5444 5442 5441 5441 5440 5439 5437 5434 5434 5432 5431 5431 5431 5431 5431 5430 5429 5427 5426 5424 5423 5422 5420 5418 5416 5413 5411 5409 5407 5405 5403 5400 5397 5394 5390 5386 5383 5380 5376 5372 5368 5365 5362 5358 5354 5351 5347 5343 5340 5336 5332 5328 5324 5320 5317 5313 5309 5305 5301 5297 5294 5291 5288 5286 5284 5283 5282 5281 5280
5475 5475 5470 5466 5466 5461 5457 5459 5460 5455 5453 5454 5451 5447 5444 5440 5438 5436 5434 5433 5434 5434 5434 5432 5429 5428 5426 5425 5425 5424 5424 5424 5423 5422 5421 5418 5417 5416 5414 5412 5411 5408 5406 5403 5401 5399 5397 5394 5392 5389 5386 5382 5378 5375 5371 5367 5362 5359 5356 5353 5349 5345 5342 5338 5334 5331 5328 5324 5321 5317 5314 5310 5306 5302 5299 5296 5292 5289 5286 5283 5281 5279 5278 5276 5275 5274
5466 5465 5464 5460 5455 5451 5449 5451 5449 5444 5444 5447 5446 5441 5437 5434 5431 5429 5428 5427 5426 5427 5427 5426 5424 5422 5421 5420 5419 5418 5418 5417 5416 5415 5414 5412 5410 5408 5406 5405 5403 5400 5398 5396 5393 5391 5389 5386 5383 5380 5377 5374 5370 5367 5363 5358 5354 5350 5347 5344 5340 5337 5333 5330 5327 5323 5320 5316 5313 5310 5307 5304 5300 5296 5293 5291 5288 5284 5281 5278 5276 5275 5273 5271 5269 5267
5458 5459 5458 5449 5442 5441 5443 5443 5440 5435 5434 5438 5438 5434 5431 5428 5424 5423 5423 5422 5421 5420 5419 5418 5418 5417 5416 5415 5413 5412 5411 5410 5409 5408 5407 5405 5403 5401 5399 5397 5394 5392 5390 5388 5385 5383 5380 5377 5375 5372 5368 5365 5362 5358 5354 5350 5345 5341 5339 5335 5331 5328 5325 5322 5319 5316 5313 5310 5307 5304 5301 5298 5295 5291 5288 5285 5283 5280 5277 5273 5270 5268 5268 5266 5263 5261
5451 5451 5447 5439 5432 5433 5435 5434 5432 5427 5425 5427 5429 5427 5424 5421 5418 5417 5417 5416 5415 5413 5412 5411 5411 5410 5409 5408 5407 5405 5404 5403 5401 5400 5399 5397 5395 5393 5391 5389 5386 5384 5382 5379 5377 5375 5372 5369 5366 5363 5360 5356 5353 5350 5346 5341 5337 5333 5331 5327 5323 5320 5316 5313 5311 5309 5306 5304 5301 5299 5296 5293 5289 5286 5283 5280 5278 5275 5273 5271 5266 5262 5260 5260 5258 5255